Location: ???????
(52.3000°N, 54.4667°E)
Time: 17:05:21
(UTC+00:00)

Cosmos 1821 Rocket - Pass Details

Date: 24 January 2020
Orbit: 944 x 1005 km, 82.9° (Epoch: 25 February)

Event Time Altitude Azimuth Distance (km) Brightness Sun altitude
Rises 16:06:57 0° 194° (SSW) 3,716 7.1 -29.2°
Reaches altitude 10° 16:09:30 10° 196° (SSW) 2,766 6.4 -29.6°
Maximum altitude 16:15:51 75° 281° (WNW) 1,032 4.1 -30.6°
Drops below altitude 10° 16:22:11 10° 8° (N) 2,748 6.3 -31.5°
Sets 16:24:42 0° 10° (N) 3,691 7.0 -31.9°
